sat.trackr.live / text

‹ back to catalog

STARLINK-11589 [DTC]

NORAD 63311 · 2025-057E

PAYLOAD ACTIVE UNKNOWN

§ Identity

Operator
Country
US
Launch date
2025-03-18
Launch site
AFETR
Launch vehicle
Mass (kg)
RCS (m²)

Purposes: comms

External: N2YO · Heavens-Above · Gunter

§ Orbital elements

Epoch: 2026-09-20T18:25:04.719936Z

Period
91.67 min
Inclination
43.0027°
Eccentricity
0.0003113
Mean motion
15.70869411 rev/d
Perigee alt
354.3 km
Apogee alt
358.5 km
Semi-major
6,734.5 km
B*
1.1901e-3
RAAN
169.0805°
Arg perigee
257.5080°
Mean anomaly
102.5440°
Rev number
8,785

§ Raw data

STARLINK-11589 [DTC]1 63311U 25057E   26263.76741574  .00155350  00000+0  11901-2 0  99952 63311  43.0027 169.0805 0003113 257.5080 102.5440 15.70869411 87852

JSON: /api/v1/satellites/63311 · /tle

For live sub-satellite position, see the globe view (requires WebGL).

§ Visibility from observer

Set your observer location to see the next 7 days of passes ≥ 10°. The values pass through the URL so the page stays shareable.

No JS? Fill the form by hand. The geolocation button needs JavaScript.